Voltar ao catálogo

SL-6 R/B(2)

AtivoHEO
NORAD 19799·ROCKET BODY·🇷🇺 Russia

Lançado Feb 14, 1989 de Plesetsk Cosmodrome

Loading…

Próximas Passagens (próximas 24 horas)

TLE

AtualizadoSource: Space-Track

Época: Sep 14, 2026, 12:25 UTC

1 19799U 89011D   26257.51773647  .00001179  00000-0  00000-0 0  9994
2 19799  63.0624 187.1486 7249069  43.5842 354.7409  2.04157876243377

Acompanhe SL-6 R/B(2) em tempo real com AllMySat

Download on the App Store